Wind_Speed
47 47 47 47 49 52 52 52 53 54 54 53 52 52 51 52 53 56 57 57 55 52 47 49 48 47 50 52 53 47 44 44 39 38 35 35 39 45 44 50 48 47 47
51 51 50 52 52 52 54 56 57 58 59 60 60 57 55 55 56 56 57 58 57 55 50 49 54 53 50 44 40 46 47 43 44 40 39 38 39 45 45 47 49 49 48
49 50 52 53 54 56 58 60 60 60 60 58 57 56 55 53 53 55 57 59 59 58 55 52 55 58 54 47 39 40 42 41 41 43 40 43 43 42 46 46 51 53 50
50 51 53 55 57 58 58 59 56 55 55 52 53 53 54 53 53 54 55 55 53 56 55 53 53 55 54 50 49 54 52 44 44 43 39 43 43 44 46 45 48 50 52
51 53 55 55 55 55 53 52 53 53 52 54 51 49 48 47 49 51 55 56 57 55 54 51 56 57 63 55 51 49 50 46 52 52 40 37 39 42 45 47 47 51 56
52 53 53 53 53 51 49 54 49 48 45 45 48 47 48 49 50 51 51 52 56 57 56 59 52 54 46 57 54 55 55 53 54 51 41 34 39 40 44 45 44 44 50
52 52 52 52 50 49 51 51 46 45 46 44 45 46 44 41 42 39 44 47 48 50 54 56 55 57 54 56 55 54 51 53 52 46 41 38 42 40 41 39 40 38 38
51 50 51 50 48 50 50 46 46 46 42 42 40 38 35 35 31 29 32 37 40 41 45 47 49 52 54 54 55 53 50 47 42 42 40 43 44 40 43 39 38 40 42
49 49 49 49 49 49 48 44 46 42 39 37 38 37 35 33 32 33 36 33 31 35 39 43 45 46 47 49 51 49 44 38 40 41 44 43 43 43 41 38 37 39 38
48 49 48 47 47 46 44 43 43 39 39 37 35 35 36 29 31 34 35 35 37 36 36 38 41 39 40 41 42 40 37 38 41 43 43 44 42 42 37 35 35 35 34
47 47 46 45 44 44 41 43 40 37 36 33 33 34 33 38 41 41 32 35 36 36 33 35 37 37 38 37 37 36 38 41 40 42 44 44 42 35 30 30 30 30 29
45 44 43 42 41 42 40 40 38 34 32 31 32 35 38 39 40 34 25 27 34 29 33 35 36 35 35 35 35 37 39 39 37 36 29 23 22 24 23 22 22 22 24
43 41 41 41 40 39 38 37 35 33 32 31 33 36 38 43 32 29 26 20 16 17 23 30 31 31 32 34 33 37 37 31 28 21 13 20 21 21 18 13 14 16 20
41 42 41 38 37 37 38 38 36 34 32 32 33 35 37 43 26 25 20 17 14 18 17 19 17 16 23 24 22 21 22 22 22 22 18 16 16 14 17 18 16 19 17
41 41 39 36 36 36 37 37 38 37 35 33 35 37 38 40 21 19 12 9 7 7 8 0 5 7 10 13 15 17 21 18 18 18 21 22 20 19 18 14 16 19 18
40 39 38 35 35 36 36 36 38 38 36 36 37 35 36 39 27 16 14 11 9 9 7 4 4 5 6 7 10 11 13 15 18 22 20 22 20 20 20 19 19 15 13
40 39 38 37 37 37 38 36 35 39 39 36 37 33 31 29 25 16 15 13 10 6 4 4 5 6 8 9 12 13 11 15 20 16 18 20 17 12 12 16 14 13 9
40 39 39 39 39 39 38 37 37 34 34 35 33 30 26 25 25 22 13 11 8 5 7 6 7 9 12 13 14 13 20 15 18 16 15 18 20 16 14 13 12 13 11
40 40 40 40 41 40 39 38 38 36 33 33 32 32 29 27 24 22 22 8 7 9 8 8 8 9 9 10 9 10 14 18 23 23 21 20 18 19 18 18 17 15 17
41 41 41 42 42 40 38 38 37 36 35 32 31 31 30 27 28 23 21 26 8 7 11 9 11 10 9 9 10 12 10 10 17 19 22 27 18 22 24 20 23 19 18
42 42 42 41 40 40 39 38 38 37 36 35 33 31 30 29 26 26 20 14 7 8 8 14 22 17 13 12 13 14 14 16 19 23 22 23 27 22 25 22 22 21 20
42 42 40 40 39 38 37 36 36 35 34 34 33 30 31 29 28 26 25 19 18 18 15 20 17 12 19 19 19 18 19 16 15 24 27 26 22 19 22 31 27 24 22
44 42 40 39 38 37 37 37 35 34 33 33 33 32 30 30 29 28 27 27 23 21 20 17 19 16 18 14 18 22 22 21 20 18 21 27 21 19 21 23 23 24 26
43 42 42 42 41 41 39 39 38 37 35 35 34 33 33 30 30 30 29 28 27 26 25 24 23 21 21 21 24 20 27 27 27 27 27 14 22 25 25 26 26 25 29
44 44 45 45 45 42 41 39 38 37 37 36 35 35 33 32 30 30 31 31 32 30 28 29 30 28 27 25 24 23 22 35 34 34 33 34 33 30 29 29 27 29 30
44 45 45 43 42 43 43 43 41 40 38 37 36 35 34 33 32 31 31 32 34 34 34 32 32 34 34 32 29 27 27 27 23 35 38 37 38 35 33 32 32 30 34
Wind_Direction
311 309 308 308 308 307 305 303 301 300 298 296 293 290 286 283 281 280 278 280 281 277 274 273 270 271 265 273 262 249 255 258 262 268 276 273 266 265 263 262 262 259 257
311 309 308 306 305 306 307 306 305 303 301 299 297 294 290 285 280 276 276 276 274 274 271 269 268 266 277 287 259 240 254 254 259 267 275 277 271 268 266 262 260 257 256
306 306 306 306 307 307 305 304 302 300 298 298 296 293 290 286 281 277 273 270 271 270 269 263 264 268 270 273 255 257 256 262 261 264 272 274 274 270 268 264 260 258 253
307 307 308 309 309 308 306 304 304 302 301 299 297 295 291 286 280 276 274 272 270 266 265 264 262 261 265 265 261 254 257 272 259 263 271 271 272 274 274 268 260 254 252
307 310 310 310 308 307 307 307 305 303 301 300 299 297 293 289 285 279 273 267 263 263 261 254 255 257 256 254 259 260 253 264 269 274 275 267 270 270 272 269 264 256 248
311 310 309 310 310 312 313 314 310 309 310 306 304 300 299 295 287 281 276 266 259 257 257 256 256 247 257 261 264 261 264 265 268 272 275 273 267 269 268 268 265 258 246
311 311 312 313 314 315 314 314 312 314 314 311 307 304 302 301 294 282 272 267 263 261 259 256 258 263 265 266 268 268 266 264 266 272 273 270 268 269 264 263 260 257 248
312 313 315 315 315 316 314 312 315 317 314 313 313 308 308 306 303 288 280 275 272 265 263 262 260 260 261 262 266 267 265 266 269 269 270 266 268 268 263 259 257 252 250
313 315 317 317 315 315 316 314 316 319 317 316 316 316 310 305 302 290 282 279 278 271 265 263 261 258 259 261 263 264 267 268 264 264 265 267 266 262 255 253 252 250 248
316 317 318 318 318 318 316 317 320 322 321 318 314 311 313 305 305 298 288 276 280 278 270 263 261 261 258 256 258 260 262 263 262 264 267 267 263 261 243 246 248 252 250
317 318 319 320 320 321 321 321 322 322 325 324 321 318 313 310 309 290 283 277 273 272 270 263 261 259 259 258 259 261 261 262 266 266 262 257 255 235 234 243 247 249 248
317 319 320 320 320 323 324 325 325 327 328 326 326 326 323 327 321 314 322 305 268 265 264 261 258 257 256 257 258 257 257 261 262 264 247 213 215 224 233 241 251 250 249
318 319 320 320 321 323 323 327 330 330 328 326 325 327 328 329 324 317 311 308 306 287 274 256 256 254 251 252 250 255 257 254 244 223 221 216 223 228 229 244 258 256 254
319 321 323 323 323 324 321 324 326 327 333 331 331 333 335 333 327 324 309 301 316 331 282 256 274 260 248 247 243 242 229 243 233 198 234 216 215 222 218 257 273 280 287
319 322 324 323 323 324 321 320 322 322 324 326 327 332 341 345 329 336 334 329 312 343 5 153 240 243 238 240 240 227 228 239 209 224 217 208 221 234 236 264 284 288 293
319 320 320 320 320 322 322 319 319 320 323 326 328 330 336 348 345 336 337 328 292 310 326 297 280 255 242 249 253 230 220 209 213 227 226 219 220 229 237 247 260 272 289
318 318 319 319 318 318 318 316 314 316 316 319 320 329 331 339 342 329 324 325 313 307 300 304 298 256 244 253 256 249 218 221 228 199 206 206 213 227 229 216 235 253 273
316 317 318 319 318 317 315 314 313 312 314 317 319 324 328 329 336 340 313 321 308 284 284 287 282 259 253 262 252 249 221 216 211 207 215 215 221 224 218 222 239 242 239
314 315 316 316 316 315 313 311 309 310 309 313 317 318 324 327 328 332 334 289 304 284 265 268 272 267 267 259 243 252 217 251 220 205 213 214 222 215 217 232 240 232 227
314 315 315 315 314 312 311 309 309 306 307 309 309 310 313 317 317 323 324 337 314 280 286 276 264 255 253 239 241 236 227 227 203 209 210 221 218 225 228 239 231 222 220
314 315 315 315 315 314 312 309 306 304 303 304 304 302 303 302 302 305 310 313 294 296 282 273 281 245 245 240 230 224 228 231 229 217 219 237 230 250 232 236 235 212 218
314 314 313 313 313 312 311 310 307 305 303 302 302 301 298 298 298 294 295 293 287 277 273 300 276 280 240 241 239 234 230 228 233 234 220 234 232 225 218 222 220 215 219
314 312 312 313 313 312 310 309 308 305 302 300 299 298 295 293 293 291 289 288 285 281 279 268 290 289 250 237 246 241 239 231 228 226 214 238 237 222 219 223 225 220 225
312 311 312 312 311 310 308 305 303 300 299 298 297 295 294 291 287 286 285 284 282 279 276 275 274 272 273 270 266 256 240 238 233 228 224 216 231 227 225 229 229 228 228
313 313 313 313 313 311 309 307 304 301 300 299 298 296 293 291 287 284 283 281 281 279 274 271 270 268 264 263 262 259 263 235 237 236 231 227 229 228 225 225 229 227 230
313 313 312 311 310 309 307 303 301 299 298 296 295 293 292 289 288 285 281 280 279 276 273 268 266 267 268 265 259 256 256 264 257 236 231 232 232 231 229 229 225 227 236
Height
5894 5889 5883 5877 5871 5865 5859 5853 5848 5843 5838 5834 5830 5826 5822 5817 5812 5807 5804 5802 5802 5803 5802 5801 5799 5798 5797 5797 5795 5799 5801 5803 5804 5807 5804 5805 5807 5807 5805 5804 5807 5810 5815
5882 5877 5872 5866 5861 5854 5847 5840 5834 5828 5821 5816 5811 5808 5804 5800 5796 5792 5789 5788 5787 5786 5787 5786 5785 5784 5782 5779 5780 5783 5787 5789 5792 5793 5792 5792 5795 5796 5794 5793 5794 5796 5800
5873 5867 5861 5854 5847 5841 5834 5827 5820 5814 5807 5801 5795 5791 5786 5783 5779 5775 5772 5770 5769 5768 5770 5771 5772 5769 5771 5772 5772 5771 5773 5775 5776 5781 5781 5779 5781 5781 5781 5782 5782 5783 5785
5863 5857 5850 5842 5835 5828 5821 5813 5806 5798 5791 5785 5779 5773 5767 5762 5760 5758 5756 5753 5753 5752 5754 5755 5758 5756 5757 5758 5759 5761 5761 5760 5758 5762 5769 5769 5768 5768 5765 5766 5767 5767 5770
5853 5845 5838 5831 5824 5816 5808 5800 5792 5784 5777 5770 5763 5757 5751 5745 5741 5738 5736 5734 5733 5735 5737 5739 5738 5738 5743 5740 5744 5746 5747 5748 5746 5746 5756 5757 5757 5757 5752 5750 5753 5752 5754
5841 5835 5828 5820 5812 5803 5795 5786 5778 5772 5764 5756 5749 5742 5736 5729 5723 5719 5715 5714 5714 5715 5719 5719 5700 5704 5711 5724 5729 5733 5733 5735 5736 5735 5739 5741 5744 5743 5741 5738 5738 5737 5741
5832 5824 5816 5808 5800 5791 5783 5774 5766 5760 5752 5745 5737 5729 5721 5714 5707 5702 5699 5697 5699 5700 5703 5703 5705 5706 5706 5710 5715 5716 5719 5720 5723 5724 5726 5727 5729 5729 5729 5727 5727 5728 5732
5821 5813 5805 5797 5789 5781 5772 5763 5756 5748 5740 5732 5725 5718 5711 5705 5697 5693 5689 5687 5686 5688 5689 5691 5693 5694 5696 5698 5700 5702 5706 5708 5711 5711 5712 5715 5715 5717 5718 5716 5718 5720 5724
5809 5802 5794 5786 5779 5770 5762 5753 5746 5738 5730 5722 5714 5708 5702 5697 5690 5685 5682 5679 5677 5677 5676 5677 5679 5681 5684 5686 5689 5690 5693 5696 5697 5698 5699 5701 5703 5704 5705 5707 5709 5709 5713
5799 5791 5784 5776 5768 5760 5752 5744 5736 5729 5721 5713 5707 5699 5692 5687 5681 5676 5671 5669 5668 5666 5666 5665 5666 5668 5670 5673 5677 5680 5682 5684 5683 5686 5687 5688 5690 5692 5694 5697 5699 5700 5703
5789 5782 5774 5767 5759 5751 5742 5735 5728 5721 5713 5706 5699 5692 5683 5677 5672 5662 5655 5654 5654 5654 5654 5654 5655 5656 5658 5661 5664 5668 5669 5670 5673 5672 5673 5675 5677 5681 5687 5688 5689 5691 5693
5780 5773 5765 5758 5751 5743 5734 5728 5720 5714 5707 5700 5693 5685 5675 5669 5659 5649 5645 5641 5640 5643 5643 5643 5644 5647 5649 5652 5655 5657 5658 5660 5661 5661 5659 5663 5669 5675 5679 5681 5683 5684 5685
5771 5764 5757 5750 5742 5735 5727 5721 5715 5708 5701 5694 5687 5679 5671 5661 5652 5646 5640 5637 5634 5633 5632 5633 5635 5637 5639 5642 5643 5645 5647 5650 5651 5655 5657 5662 5666 5670 5673 5675 5676 5677 5678
5763 5756 5749 5742 5735 5728 5721 5714 5708 5702 5697 5689 5682 5674 5665 5654 5645 5640 5636 5634 5632 5627 5623 5625 5626 5627 5630 5633 5635 5637 5640 5644 5644 5649 5654 5658 5662 5666 5668 5670 5670 5669 5670
5755 5748 5741 5735 5729 5722 5715 5708 5702 5695 5690 5684 5676 5668 5662 5651 5642 5637 5633 5631 5630 5628 5626 5625 5626 5627 5628 5630 5631 5633 5636 5639 5641 5645 5650 5654 5658 5660 5663 5665 5665 5665 5663
5747 5740 5734 5728 5722 5716 5709 5701 5694 5688 5683 5677 5669 5663 5655 5646 5641 5638 5634 5631 5630 5628 5627 5626 5626 5626 5626 5628 5628 5629 5632 5635 5638 5642 5645 5650 5655 5657 5659 5662 5662 5663 5662
5739 5733 5726 5721 5715 5708 5702 5697 5692 5683 5676 5673 5666 5660 5653 5647 5639 5636 5633 5630 5629 5627 5626 5625 5625 5625 5626 5627 5627 5628 5630 5633 5632 5638 5642 5647 5651 5653 5653 5657 5660 5661 5661
5731 5725 5719 5712 5706 5700 5695 5689 5684 5680 5673 5665 5661 5656 5651 5645 5640 5634 5631 5629 5627 5626 5625 5625 5624 5624 5624 5623 5625 5625 5626 5629 5633 5633 5637 5643 5646 5650 5652 5655 5657 5658 5660
5723 5716 5710 5704 5698 5692 5686 5681 5676 5671 5666 5661 5655 5649 5645 5641 5637 5632 5628 5626 5624 5622 5622 5622 5621 5621 5620 5620 5621 5622 5623 5624 5627 5628 5634 5638 5642 5645 5649 5652 5654 5656 5659
5713 5707 5701 5694 5688 5682 5677 5672 5667 5662 5658 5655 5650 5646 5641 5638 5633 5629 5624 5621 5618 5619 5617 5614 5616 5617 5617 5617 5618 5619 5620 5620 5622 5627 5630 5635 5638 5641 5644 5647 5649 5652 5655
5704 5697 5691 5684 5678 5672 5667 5662 5658 5654 5649 5646 5642 5639 5636 5632 5630 5625 5622 5620 5616 5614 5615 5614 5610 5609 5612 5613 5614 5615 5618 5620 5623 5625 5628 5631 5634 5635 5637 5640 5640 5647 5651
5694 5688 5681 5675 5670 5664 5658 5653 5648 5644 5640 5636 5633 5630 5627 5624 5621 5619 5617 5615 5613 5612 5610 5608 5606 5604 5605 5606 5609 5610 5612 5614 5617 5618 5621 5624 5623 5630 5631 5631 5638 5642 5646
5684 5678 5672 5666 5660 5654 5649 5644 5639 5635 5630 5627 5623 5620 5618 5615 5612 5611 5609 5607 5606 5605 5604 5602 5602 5599 5598 5599 5602 5604 5606 5609 5612 5614 5616 5617 5620 5624 5628 5631 5634 5636 5641
5673 5667 5661 5655 5649 5643 5638 5633 5628 5624 5620 5616 5613 5610 5607 5606 5603 5601 5599 5598 5597 5596 5595 5595 5593 5593 5593 5594 5595 5596 5598 5601 5603 5606 5609 5603 5612 5617 5621 5624 5627 5631 5634
5661 5655 5649 5643 5638 5632 5627 5622 5617 5613 5609 5605 5602 5599 5596 5594 5593 5591 5589 5588 5587 5586 5587 5586 5585 5585 5586 5587 5588 5589 5589 5591 5592 5596 5600 5605 5608 5610 5613 5616 5620 5623 5627
5650 5644 5638 5632 5626 5620 5615 5609 5604 5600 5596 5593 5590 5587 5584 5582 5580 5579 5579 5577 5576 5575 5575 5576 5576 5575 5575 5576 5578 5580 5581 5582 5583 5585 5589 5593 5597 5600 5603 5608 5612 5616 5620